Time,TemperatureF,DewpointF,PressureIn,WindDirection,WindDirectionDegrees,WindSpeedMPH,WindSpeedGustMPH,Humidity,HourlyPrecipIn,Conditions,Clouds,dailyrainin,SoftwareType,DateUTC
2013-03-19 00:00:00,67.4,65.0,29.90,SSE,168,0.0,0.0,92,0.00,,,0.00,Wunderground v.1.13,2013-03-19 04:00:00,
2013-03-19 00:10:00,67.4,65.0,29.90,SSE,167,0.0,0.0,92,0.00,,,0.00,Wunderground v.1.13,2013-03-19 04:10:00,
2013-03-19 00:20:00,67.3,64.9,29.90,SSE,165,0.0,0.0,92,0.00,,,0.00,Wunderground v.1.13,2013-03-19 04:20:00,
2013-03-19 00:30:00,67.3,64.9,29.90,SSE,148,0.0,0.0,92,0.00,,,0.00,Wunderground v.1.13,2013-03-19 04:30:00,
2013-03-19 00:40:00,-999.9,-99.9,29.90,North,32767,-999.0,0.0,255,-99.99,,,0.00,Wunderground v.1.13,2013-03-19 04:40:00,
2013-03-19 00:50:00,-999.9,-99.9,29.91,North,32767,-999.0,0.0,255,-99.99,,,0.00,Wunderground v.1.13,2013-03-19 04:50:00,
2013-03-19 01:00:00,-999.9,-99.9,29.91,North,32767,-999.0,0.0,255,-99.99,,,0.00,Wunderground v.1.13,2013-03-19 05:00:00,
2013-03-19 01:10:00,-999.9,-99.9,29.91,North,32767,-999.0,0.0,255,-99.99,,,0.00,Wunderground v.1.13,2013-03-19 05:10:00,
2013-03-19 01:20:00,-999.9,-99.9,29.91,North,32767,-999.0,0.0,255,-99.99,,,0.00,Wunderground v.1.13,2013-03-19 05:20:00,
2013-03-19 01:30:00,-999.9,-99.9,29.90,North,32767,-999.0,0.0,255,-99.99,,,0.00,Wunderground v.1.13,2013-03-19 05:30:00,
2013-03-19 01:40:00,-999.9,-99.9,29.90,North,32767,-999.0,0.0,255,-99.99,,,0.00,Wunderground v.1.13,2013-03-19 05:40:00,
2013-03-19 01:50:00,-999.9,-99.9,29.89,North,32767,-999.0,0.0,255,-99.99,,,0.00,Wunderground v.1.13,2013-03-19 05:50:00,
2013-03-19 02:00:00,-999.9,-99.9,29.89,North,32767,-999.0,0.0,255,-99.99,,,0.00,Wunderground v.1.13,2013-03-19 06:00:00,
2013-03-19 02:10:00,-999.9,-99.9,29.89,North,32767,-999.0,0.0,255,-99.99,,,0.00,Wunderground v.1.13,2013-03-19 06:10:00,
2013-03-19 02:20:00,-999.9,-99.9,29.89,North,32767,-999.0,0.0,255,-99.99,,,0.00,Wunderground v.1.13,2013-03-19 06:20:00,
2013-03-19 02:30:00,-999.9,-99.9,29.91,SSE,150,0.0,0.0,255,0.00,,,0.00,Wunderground v.1.13,2013-03-19 06:30:00,
2013-03-19 02:40:00,-999.9,-99.9,29.91,SSE,150,0.0,0.0,255,0.00,,,0.00,Wunderground v.1.13,2013-03-19 06:40:00,
2013-03-19 02:50:00,-999.9,-99.9,29.92,SSE,150,0.0,0.0,97,0.00,,,0.00,Wunderground v.1.13,2013-03-19 06:50:00,
2013-03-19 03:00:00,-999.9,-99.9,29.93,SSE,150,0.0,0.0,97,0.00,,,0.00,Wunderground v.1.13,2013-03-19 07:00:00,
2013-03-19 03:10:00,-999.9,-99.9,29.93,SSE,150,0.0,0.0,97,0.00,,,0.00,Wunderground v.1.13,2013-03-19 07:10:00,
2013-03-19 03:20:00,-999.9,-99.9,29.93,SSE,150,0.0,0.0,98,0.00,,,0.00,Wunderground v.1.13,2013-03-19 07:20:00,
2013-03-19 03:30:00,63.7,63.1,29.91,SSE,150,0.0,0.0,98,0.00,,,0.00,Wunderground v.1.13,2013-03-19 07:30:00,
2013-03-19 03:40:00,63.4,62.8,29.91,SSE,150,0.0,0.0,98,0.00,,,0.00,Wunderground v.1.13,2013-03-19 07:40:00,
2013-03-19 03:50:00,63.4,62.8,29.93,SSE,150,0.0,0.0,98,0.00,,,0.00,Wunderground v.1.13,2013-03-19 07:50:00,
2013-03-19 04:00:00,63.4,62.8,29.92,SSE,150,0.0,0.0,98,0.00,,,0.00,Wunderground v.1.13,2013-03-19 08:00:00,
2013-03-19 04:10:00,63.4,62.8,29.92,SSE,150,0.0,0.0,98,0.00,,,0.00,Wunderground v.1.13,2013-03-19 08:10:00,
2013-03-19 04:20:00,63.4,63.1,29.91,SSE,150,0.0,0.0,99,0.00,,,0.00,Wunderground v.1.13,2013-03-19 08:20:00,
2013-03-19 04:30:00,63.5,63.2,29.92,ENE,59,0.0,0.0,99,0.00,,,0.00,Wunderground v.1.13,2013-03-19 08:30:00,
2013-03-19 04:40:00,63.9,63.6,29.92,ENE,59,0.0,0.0,99,0.00,,,0.00,Wunderground v.1.13,2013-03-19 08:40:00,
2013-03-19 04:50:00,63.9,63.6,29.91,ENE,59,0.0,0.0,99,0.00,,,0.00,Wunderground v.1.13,2013-03-19 08:50:00,
2013-03-19 05:00:00,-999.9,-99.9,29.90,North,32767,-999.0,0.0,255,-99.99,,,0.00,Wunderground v.1.13,2013-03-19 09:00:00,
2013-03-19 05:10:00,-999.9,-99.9,29.90,North,32767,-999.0,0.0,255,-99.99,,,0.00,Wunderground v.1.13,2013-03-19 09:10:00,
2013-03-19 05:20:00,-999.9,-99.9,29.89,ESE,103,0.0,0.0,255,0.00,,,0.00,Wunderground v.1.13,2013-03-19 09:20:00,
2013-03-19 05:30:00,-999.9,-99.9,29.91,ESE,103,0.0,0.0,255,0.00,,,0.00,Wunderground v.1.13,2013-03-19 09:30:00,
2013-03-19 05:40:00,-999.9,-99.9,29.91,ESE,103,0.0,0.0,255,0.00,,,0.00,Wunderground v.1.13,2013-03-19 09:40:00,
2013-03-19 05:50:00,-999.9,-99.9,29.92,North,32767,-999.0,0.0,255,-99.99,,,0.00,Wunderground v.1.13,2013-03-19 09:50:00,
2013-03-19 06:00:00,-999.9,-99.9,29.92,North,32767,-999.0,0.0,255,-99.99,,,0.00,Wunderground v.1.13,2013-03-19 10:00:00,
2013-03-19 06:10:00,-999.9,-99.9,29.92,North,32767,-999.0,0.0,255,-99.99,,,0.00,Wunderground v.1.13,2013-03-19 10:10:00,
2013-03-19 06:20:00,-999.9,-99.9,29.93,North,32767,-999.0,0.0,255,-99.99,,,0.00,Wunderground v.1.13,2013-03-19 10:20:00,
2013-03-19 06:30:00,-999.9,-99.9,29.94,North,32767,-999.0,0.0,255,-99.99,,,0.00,Wunderground v.1.13,2013-03-19 10:30:00,
2013-03-19 06:40:00,-999.9,-99.9,29.94,ESE,103,0.0,0.0,255,0.00,,,0.00,Wunderground v.1.13,2013-03-19 10:40:00,
2013-03-19 06:50:00,-999.9,-99.9,29.96,North,32767,-999.0,0.0,255,-99.99,,,0.00,Wunderground v.1.13,2013-03-19 10:50:00,
2013-03-19 07:00:00,-999.9,-99.9,29.96,North,32767,-999.0,0.0,255,-99.99,,,0.00,Wunderground v.1.13,2013-03-19 11:00:00,
2013-03-19 07:10:00,-999.9,-99.9,29.96,North,32767,-999.0,0.0,255,-99.99,,,0.00,Wunderground v.1.13,2013-03-19 11:10:00,
2013-03-19 07:20:00,-999.9,-99.9,29.95,North,32767,-999.0,0.0,255,-99.99,,,0.00,Wunderground v.1.13,2013-03-19 11:20:00,
2013-03-19 07:30:00,-999.9,-99.9,29.96,North,32767,-999.0,0.0,255,-99.99,,,0.00,Wunderground v.1.13,2013-03-19 11:30:00,
2013-03-19 07:40:00,-999.9,-99.9,29.96,North,32767,-999.0,0.0,255,-99.99,,,0.00,Wunderground v.1.13,2013-03-19 11:40:00,
2013-03-19 07:50:00,-999.9,-99.9,29.96,North,32767,-999.0,0.0,255,-99.99,,,0.00,Wunderground v.1.13,2013-03-19 11:50:00,
2013-03-19 08:00:00,-999.9,-99.9,29.96,North,32767,-999.0,0.0,255,-99.99,,,0.00,Wunderground v.1.13,2013-03-19 12:00:00,
2013-03-19 08:10:00,-999.9,-99.9,29.96,ESE,113,0.0,0.0,255,-99.99,,,0.00,Wunderground v.1.13,2013-03-19 12:10:00,
2013-03-19 08:20:00,63.4,-99.9,29.98,ESE,113,0.0,0.0,255,0.00,,,0.00,Wunderground v.1.13,2013-03-19 12:20:00,
2013-03-19 08:30:00,63.4,-99.9,29.99,ESE,113,0.0,0.0,255,0.00,,,0.00,Wunderground v.1.13,2013-03-19 12:30:00,
2013-03-19 08:40:00,-999.9,-99.9,29.99,North,32767,-999.0,0.0,255,-99.99,,,0.00,Wunderground v.1.13,2013-03-19 12:40:00,
2013-03-19 08:50:00,-999.9,-99.9,29.99,North,32767,-999.0,0.0,255,-99.99,,,0.00,Wunderground v.1.13,2013-03-19 12:50:00,
2013-03-19 09:00:00,-999.9,-99.9,29.99,North,32767,-999.0,0.0,255,-99.99,,,0.00,Wunderground v.1.13,2013-03-19 13:00:00,
2013-03-19 09:10:00,-999.9,-99.9,29.99,North,32767,-999.0,0.0,255,-99.99,,,0.00,Wunderground v.1.13,2013-03-19 13:10:00,
2013-03-19 09:20:00,-999.9,-99.9,29.99,North,32767,-999.0,0.0,255,-99.99,,,0.00,Wunderground v.1.13,2013-03-19 13:20:00,
2013-03-19 09:30:00,-999.9,-99.9,29.98,North,32767,-999.0,0.0,255,-99.99,,,0.00,Wunderground v.1.13,2013-03-19 13:30:00,
2013-03-19 09:40:00,-999.9,-99.9,29.98,North,32767,-999.0,0.0,255,-99.99,,,0.00,Wunderground v.1.13,2013-03-19 13:40:00,
2013-03-19 09:50:00,-999.9,-99.9,29.99,North,32767,-999.0,0.0,255,-99.99,,,0.00,Wunderground v.1.13,2013-03-19 13:50:00,
2013-03-19 10:00:00,-999.9,-99.9,29.99,North,32767,-999.0,0.0,255,-99.99,,,0.00,Wunderground v.1.13,2013-03-19 14:00:00,
2013-03-19 10:10:00,-999.9,-99.9,29.99,North,32767,-999.0,0.0,255,-99.99,,,0.00,Wunderground v.1.13,2013-03-19 14:10:00,
2013-03-19 10:20:00,-999.9,-99.9,30.00,North,32767,-999.0,0.0,255,-99.99,,,0.00,Wunderground v.1.13,2013-03-19 14:20:00,
2013-03-19 10:30:00,-999.9,-99.9,29.99,North,32767,-999.0,0.0,255,-99.99,,,0.00,Wunderground v.1.13,2013-03-19 14:30:00,
2013-03-19 10:40:00,-999.9,-99.9,29.99,North,32767,-999.0,0.0,255,-99.99,,,0.00,Wunderground v.1.13,2013-03-19 14:40:00,
2013-03-19 10:50:00,-999.9,-99.9,29.98,North,32767,-999.0,0.0,255,-99.99,,,0.00,Wunderground v.1.13,2013-03-19 14:50:00,
2013-03-19 11:00:00,-999.9,-99.9,29.99,North,32767,-999.0,0.0,255,-99.99,,,0.00,Wunderground v.1.13,2013-03-19 15:00:00,
2013-03-19 11:10:00,-999.9,-99.9,29.99,North,32767,-999.0,0.0,255,-99.99,,,0.00,Wunderground v.1.13,2013-03-19 15:10:00,
2013-03-19 11:20:00,-999.9,-99.9,29.99,North,32767,-999.0,0.0,255,-99.99,,,0.00,Wunderground v.1.13,2013-03-19 15:20:00,
2013-03-19 11:30:00,-999.9,-99.9,30.01,North,32767,-999.0,0.0,255,-99.99,,,0.00,Wunderground v.1.13,2013-03-19 15:30:00,
2013-03-19 11:40:00,-999.9,-99.9,30.01,North,32767,-999.0,0.0,255,-99.99,,,0.00,Wunderground v.1.13,2013-03-19 15:40:00,
2013-03-19 11:50:00,-999.9,-99.9,30.00,North,32767,-999.0,0.0,255,-99.99,,,0.00,Wunderground v.1.13,2013-03-19 15:50:00,
2013-03-19 12:00:00,-999.9,-99.9,30.00,North,32767,-999.0,0.0,255,-99.99,,,0.00,Wunderground v.1.13,2013-03-19 16:00:00,
2013-03-19 12:10:00,-999.9,-99.9,30.00,North,32767,-999.0,0.0,255,-99.99,,,0.00,Wunderground v.1.13,2013-03-19 16:10:00,
2013-03-19 12:20:00,-999.9,-99.9,30.00,North,32767,-999.0,0.0,255,-99.99,,,0.00,Wunderground v.1.13,2013-03-19 16:20:00,
2013-03-19 12:30:00,-999.9,-99.9,29.98,North,32767,-999.0,0.0,255,-99.99,,,0.00,Wunderground v.1.13,2013-03-19 16:30:00,
2013-03-19 12:40:00,-999.9,-99.9,29.98,North,32767,-999.0,0.0,255,-99.99,,,0.00,Wunderground v.1.13,2013-03-19 16:40:00,
2013-03-19 12:50:00,-999.9,-99.9,29.98,North,32767,-999.0,0.0,255,-99.99,,,0.00,Wunderground v.1.13,2013-03-19 16:50:00,
2013-03-19 13:00:00,-999.9,-99.9,29.98,North,32767,-999.0,0.0,255,-99.99,,,0.00,Wunderground v.1.13,2013-03-19 17:00:00,
2013-03-19 13:10:00,-999.9,-99.9,29.98,North,32767,-999.0,0.0,255,-99.99,,,0.00,Wunderground v.1.13,2013-03-19 17:10:00,
2013-03-19 13:20:00,-999.9,-99.9,29.97,North,32767,-999.0,0.0,255,-99.99,,,0.00,Wunderground v.1.13,2013-03-19 17:20:00,
2013-03-19 13:30:00,-999.9,-99.9,29.96,North,32767,-999.0,0.0,255,-99.99,,,0.00,Wunderground v.1.13,2013-03-19 17:30:00,
2013-03-19 13:40:00,-999.9,-99.9,29.96,North,32767,-999.0,0.0,255,-99.99,,,0.00,Wunderground v.1.13,2013-03-19 17:40:00,
2013-03-19 13:50:00,-999.9,-99.9,29.97,WSW,250,0.0,4.0,255,0.00,,,0.00,Wunderground v.1.13,2013-03-19 17:50:00,
2013-03-19 14:00:00,-999.9,-99.9,29.94,WSW,243,0.0,4.0,255,0.00,,,0.00,Wunderground v.1.13,2013-03-19 18:00:00,
2013-03-19 14:10:00,-999.9,-99.9,29.94,North,32767,-999.0,0.0,255,-99.99,,,0.00,Wunderground v.1.13,2013-03-19 18:10:00,
2013-03-19 14:20:00,-999.9,-99.9,29.95,North,32767,-999.0,0.0,255,-99.99,,,0.00,Wunderground v.1.13,2013-03-19 18:20:00,
2013-03-19 14:30:00,-999.9,-99.9,29.95,North,32767,-999.0,0.0,255,-99.99,,,0.00,Wunderground v.1.13,2013-03-19 18:30:00,
2013-03-19 14:40:00,-999.9,-99.9,29.95,North,32767,-999.0,0.0,255,-99.99,,,0.00,Wunderground v.1.13,2013-03-19 18:40:00,
2013-03-19 14:50:00,-999.9,-99.9,29.93,North,32767,-999.0,0.0,255,-99.99,,,0.00,Wunderground v.1.13,2013-03-19 18:50:00,
2013-03-19 15:00:00,-999.9,-99.9,29.91,North,32767,-999.0,0.0,255,-99.99,,,0.00,Wunderground v.1.13,2013-03-19 19:00:00,
2013-03-19 15:10:00,-999.9,-99.9,29.91,North,32767,-999.0,0.0,255,-99.99,,,0.00,Wunderground v.1.13,2013-03-19 19:10:00,
2013-03-19 15:20:00,-999.9,-99.9,29.92,WSW,244,8.0,8.0,255,-99.99,,,0.00,Wunderground v.1.13,2013-03-19 19:20:00,
2013-03-19 15:30:00,-999.9,-99.9,29.92,North,32767,-999.0,0.0,255,-99.99,,,0.00,Wunderground v.1.13,2013-03-19 19:30:00,
2013-03-19 15:50:00,74.7,-99.9,29.92,WSW,243,6.0,6.0,255,0.00,,,0.00,Wunderground v.1.13,2013-03-19 19:50:00,
2013-03-19 16:00:00,74.6,-99.9,29.93,WSW,251,2.0,10.0,255,0.00,,,0.00,Wunderground v.1.13,2013-03-19 20:00:00,
2013-03-19 16:10:00,73.2,-99.9,29.93,WSW,240,8.0,9.0,255,0.00,,,0.00,Wunderground v.1.13,2013-03-19 20:10:00,
2013-03-19 16:20:00,-999.9,-99.9,29.92,North,32767,-999.0,8.0,255,-99.99,,,0.00,Wunderground v.1.13,2013-03-19 20:20:00,
2013-03-19 16:30:00,-999.9,-99.9,29.93,North,32767,-999.0,8.0,255,-99.99,,,0.00,Wunderground v.1.13,2013-03-19 20:30:00,
2013-03-19 16:40:00,-999.9,-99.9,29.93,WSW,239,1.0,1.0,78,0.00,,,0.00,Wunderground v.1.13,2013-03-19 20:40:00,
2013-03-19 16:50:00,-999.9,-99.9,29.93,North,32767,-999.0,2.0,255,-99.99,,,0.00,Wunderground v.1.13,2013-03-19 20:50:00,
2013-03-19 17:00:00,-999.9,-99.9,29.93,North,32767,-999.0,2.0,255,-99.99,,,0.00,Wunderground v.1.13,2013-03-19 21:00:00,
2013-03-19 17:10:00,-999.9,-99.9,29.93,North,32767,-999.0,0.0,255,-99.99,,,0.00,Wunderground v.1.13,2013-03-19 21:10:00,
2013-03-19 17:20:00,-999.9,-99.9,29.93,North,32767,-999.0,0.0,255,-99.99,,,0.00,Wunderground v.1.13,2013-03-19 21:20:00,
2013-03-19 17:30:00,-999.9,-99.9,29.92,North,32767,-999.0,0.0,255,-99.99,,,0.00,Wunderground v.1.13,2013-03-19 21:30:00,
2013-03-19 17:40:00,-999.9,-99.9,29.92,North,32767,-999.0,0.0,255,-99.99,,,0.00,Wunderground v.1.13,2013-03-19 21:40:00,
2013-03-19 17:50:00,-999.9,-99.9,29.92,North,32767,-999.0,0.0,255,-99.99,,,0.00,Wunderground v.1.13,2013-03-19 21:50:00,
2013-03-19 18:00:00,-999.9,-99.9,29.92,North,32767,-999.0,0.0,255,-99.99,,,0.00,Wunderground v.1.13,2013-03-19 22:00:00,
2013-03-19 18:10:00,-999.9,-99.9,29.92,North,32767,-999.0,0.0,255,-99.99,,,0.00,Wunderground v.1.13,2013-03-19 22:10:00,
2013-03-19 18:20:00,-999.9,-99.9,29.92,North,32767,-999.0,0.0,255,-99.99,,,0.00,Wunderground v.1.13,2013-03-19 22:20:00,
2013-03-19 18:30:00,-999.9,-99.9,29.93,North,32767,-999.0,0.0,255,-99.99,,,0.00,Wunderground v.1.13,2013-03-19 22:30:00,
2013-03-19 18:40:00,-999.9,-99.9,29.93,North,32767,-999.0,0.0,255,-99.99,,,0.00,Wunderground v.1.13,2013-03-19 22:40:00,
2013-03-19 18:50:00,-999.9,-99.9,29.93,North,32767,-999.0,0.0,255,-99.99,,,0.00,Wunderground v.1.13,2013-03-19 22:50:00,
2013-03-19 19:00:00,-999.9,-99.9,29.94,North,32767,-999.0,0.0,255,-99.99,,,0.00,Wunderground v.1.13,2013-03-19 23:00:00,
2013-03-19 19:10:00,-999.9,-99.9,29.94,North,32767,-999.0,0.0,255,-99.99,,,0.00,Wunderground v.1.13,2013-03-19 23:10:00,
2013-03-19 19:20:00,-999.9,-99.9,29.94,North,32767,-999.0,0.0,255,-99.99,,,0.00,Wunderground v.1.13,2013-03-19 23:20:00,
2013-03-19 19:30:00,-999.9,-99.9,29.93,North,32767,-999.0,0.0,255,-99.99,,,0.00,Wunderground v.1.13,2013-03-19 23:30:00,
2013-03-19 19:40:00,-999.9,-99.9,29.93,North,32767,-999.0,0.0,255,-99.99,,,0.00,Wunderground v.1.13,2013-03-19 23:40:00,
2013-03-19 19:50:00,-999.9,-99.9,29.93,North,32767,-999.0,0.0,255,-99.99,,,0.00,Wunderground v.1.13,2013-03-19 23:50:00,
2013-03-19 20:00:00,-999.9,-99.9,29.94,North,32767,-999.0,0.0,255,-99.99,,,0.00,Wunderground v.1.13,2013-03-20 00:00:00,
2013-03-19 20:10:00,-999.9,-99.9,29.94,North,32767,-999.0,0.0,255,-99.99,,,0.00,Wunderground v.1.13,2013-03-20 00:10:00,
2013-03-19 20:20:00,-999.9,-99.9,29.93,North,32767,-999.0,0.0,255,-99.99,,,0.00,Wunderground v.1.13,2013-03-20 00:20:00,
2013-03-19 20:30:00,-999.9,-99.9,29.94,North,32767,-999.0,0.0,255,-99.99,,,0.00,Wunderground v.1.13,2013-03-20 00:30:00,
2013-03-19 20:40:00,-999.9,-99.9,29.94,North,32767,-999.0,0.0,255,-99.99,,,0.00,Wunderground v.1.13,2013-03-20 00:40:00,
2013-03-19 20:50:00,-999.9,-99.9,29.94,North,32767,-999.0,0.0,255,-99.99,,,0.00,Wunderground v.1.13,2013-03-20 00:50:00,
2013-03-19 21:00:00,-999.9,-99.9,29.94,North,32767,-999.0,0.0,255,-99.99,,,0.00,Wunderground v.1.13,2013-03-20 01:00:00,
2013-03-19 21:10:00,-999.9,-99.9,29.94,North,32767,-999.0,0.0,255,-99.99,,,0.00,Wunderground v.1.13,2013-03-20 01:10:00,
2013-03-19 21:20:00,-999.9,-99.9,29.95,North,32767,-999.0,0.0,255,-99.99,,,0.00,Wunderground v.1.13,2013-03-20 01:20:00,
2013-03-19 21:30:00,-999.9,-99.9,29.95,North,32767,-999.0,0.0,255,-99.99,,,0.00,Wunderground v.1.13,2013-03-20 01:30:00,
2013-03-19 21:40:00,-999.9,-99.9,29.95,North,32767,-999.0,0.0,255,-99.99,,,0.00,Wunderground v.1.13,2013-03-20 01:40:00,
2013-03-19 21:50:00,-999.9,-99.9,29.95,North,32767,-999.0,0.0,255,-99.99,,,0.00,Wunderground v.1.13,2013-03-20 01:50:00,
2013-03-19 22:00:00,-999.9,-99.9,29.95,North,32767,-999.0,0.0,255,-99.99,,,0.00,Wunderground v.1.13,2013-03-20 02:00:00,
2013-03-19 22:10:00,-999.9,-99.9,29.95,North,32767,-999.0,0.0,255,-99.99,,,0.00,Wunderground v.1.13,2013-03-20 02:10:00,
2013-03-19 22:20:00,-999.9,-99.9,29.95,North,32767,-999.0,0.0,255,-99.99,,,0.00,Wunderground v.1.13,2013-03-20 02:20:00,
2013-03-19 22:30:00,-999.9,-99.9,29.95,North,32767,-999.0,0.0,255,-99.99,,,0.00,Wunderground v.1.13,2013-03-20 02:30:00,
2013-03-19 22:40:00,-999.9,-99.9,29.95,North,32767,-999.0,0.0,255,-99.99,,,0.00,Wunderground v.1.13,2013-03-20 02:40:00,
2013-03-19 22:50:00,-999.9,-99.9,29.95,North,32767,-999.0,0.0,255,-99.99,,,0.00,Wunderground v.1.13,2013-03-20 02:50:00,
2013-03-19 23:00:00,-999.9,-99.9,29.96,North,32767,-999.0,0.0,255,-99.99,,,0.00,Wunderground v.1.13,2013-03-20 03:00:00,
2013-03-19 23:10:00,-999.9,-99.9,29.96,North,32767,-999.0,0.0,255,-99.99,,,0.00,Wunderground v.1.13,2013-03-20 03:10:00,
2013-03-19 23:20:00,-999.9,-99.9,29.96,North,32767,-999.0,0.0,255,-99.99,,,0.00,Wunderground v.1.13,2013-03-20 03:20:00,
2013-03-19 23:30:00,-999.9,-99.9,29.96,North,32767,-999.0,0.0,255,-99.99,,,0.00,Wunderground v.1.13,2013-03-20 03:30:00,
2013-03-19 23:40:00,-999.9,-99.9,29.96,North,32767,-999.0,0.0,255,-99.99,,,0.00,Wunderground v.1.13,2013-03-20 03:40:00,
2013-03-19 23:50:00,-999.9,-99.9,29.97,North,32767,-999.0,0.0,255,-99.99,,,0.00,Wunderground v.1.13,2013-03-20 03:50:00,